Preview of NWS' New Version of Forecast
This preview is not operational and should not be used for support decisions.

Regional Weather Roundup (RWR)

Issued by National Weather Service (NWS)

                            
000
ASUS44 KJAN 152010
RWRMS 

MISSISSIPPI HOURLY WEATHER ROUNDUP
NATIONAL WEATHER SERVICE JACKSON MS
300 PM CDT SUN SEP 15 2019

NOTE: "FAIR: INDICATES FEW OR NO CLOUDS BELOW 12,000 FEET WITH NO
SIGNIFICANT WEATHER AND/OR OBSTRUCTIONS TO VISIBILITY.

MSZ001>002-007>008-010>013-018>021-025>028-034>036-152100-
NORTHWEST MISSISSIPPI
  
CITY           SKY/WX    TMP DP  RH WIND       PRES   REMARKS
BATESVILLE     FAIR      95  68  41 VRB5      30.06F HX  99           
CLARKSDALE       N/A     95  70  43 NE12      30.06F HX 101           
CLEVELAND      FAIR      95  69  42 E9        30.03F HX 100           
GREENWOOD      FAIR      96  68  39 E10       30.04F HX 101           
GREENVILLE     FAIR      95  69  42 E9        30.02F HX 100           
OLIVE BRANCH   MOSUNNY   95  66  38 VRB7      30.07F HX  98           
OXFORD         FAIR      95  64  36 NE9G16    30.08F HX  97           
TUNICA           N/A     91  68  46 NE7       30.06F HX  95           
WINONA         FAIR      90  70  51 NE5       30.05F HX  95           
$$

MSZ003>006-009-014>017-022>024-029>033-037>039-152100-
NORTHEAST MISSISSIPPI
  
CITY           SKY/WX    TMP DP  RH WIND       PRES   REMARKS
ABERDEEN       FAIR      91  73  55 VRB5      30.06F HX 100           
COLUMBUS AFB   FAIR      92  70  48 NE8       30.05F HX  97           
CORINTH        FAIR      93  66  40 NE6       30.07F HX  96           
GOLDN TRIANGLE FAIR      93  72  50 NE9       30.06F HX 101           
STARKVILLE     MOCLDY    90  68  48 E9        30.08F HX  93           
TUPELO         FAIR      93  68  43 E8        30.06F HX  97           
$$

MSZ040-058-152100-
CENTRAL MISSISSIPPI
  
CITY           SKY/WX    TMP DP  RH WIND       PRES   REMARKS
JACKSON INTL   FAIR      93  66  40 NE12G18   30.03F HX  96           
JACKSON HAWKNS FAIR      94  68  42 NE9       30.03F HX  98           
MADISON        FAIR      91  68  46 NE7       30.04F HX  95           
MERIDIAN KEY   FAIR      95  68  41 NE14G21   30.03F HX  99           
MERIDIAN NAS   FAIR      92  67  43 E14G20    30.04F HX  95           
RAYMOND          N/A     95  72  46 VRB6G13   30.02F HX 103           
VICKSBURG VKS  PTCLDY    93  70  46 VRB6G14   30.01F HX  99           
$$

MSZ059>079-152100-
SOUTH MISSISSIPPI
  
CITY           SKY/WX    TMP DP  RH WIND       PRES   REMARKS
BROOKHAVEN     FAIR      90  70  51 N12       30.04F HX  95           
HATTIESBURG    FAIR      90  70  51 NE10      30.01F HX  95           
LAUREL         CLOUDY    92  69  47 NE13      30.02F HX  96           
MCCOMB         FAIR      92  69  47 NE9       30.02F HX  97           
NATCHEZ        PTSUNNY   92  69  47 NE10      30.02F HX  97           
PINE BELT      FAIR      90  72  55 NE9       30.03F HX  97           
$$

MSZ080>082-152100-
COASTAL MISSISSIPPI
  
CITY           SKY/WX    TMP DP  RH WIND       PRES   REMARKS
BILOXI         FAIR      93  68  43 SE5       29.97F HX  97           
PASCAGOULA     FAIR      93  69  45 E8        29.98F HX  98           
GULFPORT       FAIR      94  66  39 E14       29.96F HX  97           
$$

LAZ007>009-015>016-023>026-152100-
NORTHEAST LOUISIANA
  
CITY           SKY/WX    TMP DP  RH WIND       PRES   REMARKS
BASTROP        MOCLDY    94  69  42 N6        30.02F HX  99           
TALLULAH/VBURG FAIR      96  70  42 NE7       30.01F HX 102           
VIDALIA        MOCLDY   N/A N/A N/A E10       29.99F                  
$$